This is the latest recevied weather packets stored in our database for station/object VK6HGR-1. If no packets are shown the sender has not sent any weather packets the latest 10 day(s).
| Time | Temp. | Humidity | Pressure | Rain* | Wind** | Luminosity | Snow |
|---|---|---|---|---|---|---|---|
| 1777884310 | 21.67° C | 55% | 1022 hPa | - | - | - | - |
| 1777883411 | 22.22° C | 54% | 1022 hPa | - | - | - | - |
| 1777882511 | 22.78° C | 52% | 1021.9 hPa | - | - | - | - |
| 1777881611 | 22.78° C | 47% | 1022.1 hPa | - | - | - | - |
| 1777880714 | 22.78° C | 47% | 1022.1 hPa | - | - | - | - |
| 1777879810 | 23.33° C | 47% | 1022 hPa | - | - | - | - |
| 1777878910 | 23.33° C | 47% | 1022.1 hPa | - | - | - | - |
| 1777878011 | 23.33° C | 46% | 1022.2 hPa | - | - | - | - |
| 1777877112 | 23.33° C | 46% | 1022.2 hPa | - | - | - | - |
| 1777876212 | 22.78° C | 46% | 1022.2 hPa | - | - | - | - |
| 1777875312 | 22.78° C | 47% | 1022.2 hPa | - | - | - | - |
| 1777874411 | 22.78° C | 46% | 1022.3 hPa | - | - | - | - |
| 1777873514 | 22.78° C | 47% | 1022.4 hPa | - | - | - | - |
| 1777872611 | 22.78° C | 47% | 1022.7 hPa | - | - | - | - |
| 1777871711 | 22.78° C | 49% | 1022.8 hPa | - | - | - | - |
| 1777870811 | 22.78° C | 49% | 1023.1 hPa | - | - | - | - |
| 1777869911 | 22.22° C | 50% | 1023.3 hPa | - | - | - | - |
| 1777869012 | 21.67° C | 50% | 1023.5 hPa | - | - | - | - |
| 1777868112 | 21.11° C | 51% | 1023.8 hPa | - | - | - | - |
| 1777867210 | 21.11° C | 52% | 1024.2 hPa | - | - | - | - |
| 1777866312 | 21.11° C | 52% | 1024.5 hPa | - | - | - | - |
| 1777865411 | 21.11° C | 54% | 1024.7 hPa | - | - | - | - |
| 1777864511 | 20.56° C | 55% | 1024.7 hPa | - | - | - | - |
| 1777863610 | 20° C | 56% | 1024.9 hPa | - | - | - | - |
| 1777862711 | 19.44° C | 56% | 1025.1 hPa | - | - | - | - |
* Rain since midnight (hover to see other rain measurements)
** Current wind speed in m/s (hover to see current wind gust speed)